Home   Weather   Himeji   Past weeks

Flag for Japan Past Weather in Himeji, Japan — Yesterday and Last 2 Weeks

Now
45 °F

Passing clouds.


Feels Like: 41 °F
Forecast: 35 / 48 °F
Wind: 6 mph from Northeast

Location: Kansai International Airport

Current Time: Feb 27, 2017 at 12:08:07 am

Latest Report: Feb 26, 2017 at 11:30 pm


Visibility: N/A

Pressure: 30.21 "Hg

Humidity: 66%

Dew Point: 34 °F

Location of HimejiLocation

Past Weather in Himeji — Graph

°F

Himeji Temperature Yesterday

Maximum temperature yesterday: 52 °F (at 2:00 pm)
Minimum temperature yesterday: 43 °F (at 5:00 am)
Average temperature yesterday: 47 °F

High & Low Weather Summary for the Past Weeks

 TemperatureHumidityPressure
High61 °F (Feb 20, 11:42 am)100% (Feb 20, 4:00 pm)30.45 "Hg (Feb 20, 4:00 pm)
Low36 °F (Feb 12, 3:30 am)26% (Feb 26, 2:00 pm)29.47 "Hg (Feb 20, 1:30 pm)
Average46 °F64%30.11 "Hg
* Reported Feb 11 11:00 pm — Feb 26 11:00 pm, Himeji, Weather by CustomWeather, © 2017

Note: Actual official high and low records may vary slightly from our data, if they occured in-between our weather recording intervals... More about our weather records

Advertising

Himeji Weather History for the Previous 24 Hours

Scroll right to see more
 ConditionsComfort  
Time TempWeatherWind HumidityBarometerVisibility
11:00 pm
Sun, Feb 26
45 °FPassing clouds.9 mph61%30.21 "HgN/A
10:30 pm46 °FPassing clouds.10 mph62%30.21 "HgN/A
10:00 pm46 °FPassing clouds.12 mph57%30.21 "HgN/A
9:30 pm46 °FPartly cloudy.13 mph57%30.18 "HgN/A
9:00 pm48 °FPassing clouds.12 mph54%30.18 "HgN/A
8:30 pm48 °FPassing clouds.5 mph58%30.18 "HgN/A
8:00 pm48 °FPassing clouds.6 mph50%30.15 "HgN/A
7:30 pm50 °FPartly cloudy.5 mph40%30.18 "HgN/A
7:00 pm48 °FPartly cloudy.5 mph46%30.15 "HgN/A
6:30 pm48 °FPartly cloudy.3 mph43%30.15 "HgN/A
6:00 pm48 °FPartly cloudy.2 mph43%30.15 "HgN/A
5:30 pm48 °FBroken clouds.3 mph40%30.12 "HgN/A
5:00 pm48 °FPartly sunny.5 mph37%30.12 "HgN/A
4:30 pm50 °FPartly sunny.6 mph37%30.12 "HgN/A
4:00 pm48 °FPartly sunny.6 mph37%30.12 "HgN/A
3:30 pm50 °FPartly sunny.7 mph32%30.12 "HgN/A
3:00 pm50 °FPartly sunny.5 mph30%30.12 "HgN/A
2:30 pm50 °FPartly sunny.5 mph32%30.12 "HgN/A
2:00 pm52 °FPartly sunny.8 mph26%30.12 "HgN/A
1:30 pm50 °FPartly sunny.6 mph28%30.12 "HgN/A
1:00 pm50 °FPartly sunny.7 mph40%30.15 "HgN/A
12:30 pm50 °FPartly sunny.8 mph47%30.15 "HgN/A
12:00 pm48 °FPartly sunny.7 mph50%30.15 "HgN/A
11:30 am48 °FPartly sunny.6 mph54%30.15 "HgN/A
11:00 am48 °FPartly sunny.6 mph43%30.18 "HgN/A
10:30 am48 °FPartly sunny.6 mph46%30.18 "HgN/A
10:00 am48 °FPartly sunny.6 mph40%30.18 "HgN/A
9:30 am46 °FPartly sunny.5 mph50%30.18 "HgN/A
9:00 am48 °FPartly sunny.6 mph43%30.18 "HgN/A
8:30 am46 °FPartly sunny.6 mph46%30.18 "HgN/A
8:00 am46 °FPartly sunny.6 mph46%30.18 "HgN/A
7:30 am46 °FPartly sunny.5 mph50%30.18 "HgN/A
7:00 am45 °FBroken clouds.5 mph53%30.15 "HgN/A
6:30 am45 °FPassing clouds.6 mph49%30.15 "HgN/A
6:00 am43 °FPassing clouds.6 mph53%30.15 "HgN/A
5:30 am45 °FPassing clouds.7 mph53%30.15 "HgN/A
5:00 am43 °FPassing clouds.6 mph57%30.15 "HgN/A
4:30 am45 °FPassing clouds.7 mph53%30.12 "HgN/A
4:00 am45 °FPassing clouds.6 mph53%30.12 "HgN/A
3:30 am45 °FPassing clouds.7 mph53%30.12 "HgN/A
3:00 am45 °FPassing clouds.8 mph53%30.12 "HgN/A
2:30 am45 °FPartly cloudy.6 mph49%30.12 "HgN/A
2:00 am46 °FPassing clouds.8 mph50%30.12 "HgN/A
1:30 am46 °FPassing clouds.8 mph50%30.12 "HgN/A
1:00 am46 °FPassing clouds.8 mph50%30.12 "HgN/A
12:30 am46 °FPassing clouds.9 mph50%30.12 "HgN/A
12:00 am46 °FPassing clouds.12 mph53%30.12 "HgN/A
Weather by CustomWeather, © 2017

See weather overviewHow to use our weather pages

LIVE ANNULAR SOLAR ECLIPSE – Watch the eclipse as it happens